Mojave, CA

9:20 PM PST on December 11, 2019 (GMT -0800)
Mojave

Weather History for KMHV - October, 2019

Change the Weather History Date:

Tuesday, October 1, 2019

  Actual Average Record
Temperature  
Mean Temperature 58 °F -  
Max Temperature 69 °F 85 °F 97 °F (1980)
Min Temperature 48 °F 55 °F 34 °F (1971)
Degree Days  
Heating Degree Days 6    
Growing Degree Days 8 (Base 50)    
Moisture  
Dew Point 28 °F    
Average Humidity 34    
Maximum Humidity 50    
Minimum Humidity 17    
Precipitation  
Precipitation 0.00 in - - ()
Sea Level Pressure  
Sea Level Pressure 29.88 in    
Wind  
Wind Speed 18 mph (WNW)    
Max Wind Speed 33 mph    
Max Gust Speed 43 mph    
Visibility 10 miles    
Events      
Averages and records for this station are not official NWS values.
T = Trace of Precipitation, MM = Missing Value Source: NWS Daily Summary

Daily Weather History Graph

Daily Weather History Graph

Search for Another Location

Airport or City:

Astronomy

Oct. 01, 2019 Rise Set
Actual Time 6:47 AM PDT 6:36 PM PDT
Civil Twilight 6:22 AM PDT 7:01 PM PDT
Nautical Twilight 5:52 AM PDT 7:31 PM PDT
Astronomical Twilight 5:23 AM PDT 8:00 PM PDT
Moon 10:02 AM PDT (10/1) 9:00 PM PDT (10/1)
Length of Visible Light 12h 39m
Length of Day
11h 49m
Waxing Crescent, 13% of the Moon is Illuminated
Oct 1
Waxing Crescent
Oct 5
First Quarter
Oct 13
Full
Oct 21
Last Quarter
Oct 27
New

Hourly Weather History & Observations

Time (PDT) Temp. Dew Point Humidity Pressure Visibility Wind Dir Wind Speed Gust Speed Precip Events Conditions
12:00 AM 51.8 °F 32.0 °F 47% 29.84 in 10.0 mi WNW 23.0 mph 33.4 mph N/A   Mostly Cloudy
12:20 AM 51.8 °F 33.8 °F 50% 29.84 in 10.0 mi WNW 23.0 mph 35.7 mph N/A   Scattered Clouds
12:40 AM 51.8 °F 33.8 °F 50% 29.85 in 10.0 mi WNW 16.1 mph 23.0 mph N/A   Mostly Cloudy
1:00 AM 51.8 °F 33.8 °F 50% 29.83 in 10.0 mi NW 31.1 mph 41.4 mph N/A   Scattered Clouds
1:20 AM 53.6 °F 33.8 °F 47% 29.83 in 10.0 mi NW 33.4 mph 42.6 mph N/A   Mostly Cloudy
1:40 AM 51.8 °F 33.8 °F 50% 29.83 in 10.0 mi NW 24.2 mph 39.1 mph N/A   Scattered Clouds
2:00 AM 51.8 °F 33.8 °F 50% 29.84 in 10.0 mi NW 26.5 mph 42.6 mph N/A   Scattered Clouds
2:20 AM 51.8 °F 33.8 °F 50% 29.83 in 10.0 mi NW 25.3 mph 38.0 mph N/A   Scattered Clouds
2:40 AM 51.8 °F 32.0 °F 47% 29.82 in 10.0 mi NW 29.9 mph 36.8 mph N/A   Partly Cloudy
3:00 AM 51.8 °F 32.0 °F 47% 29.83 in 10.0 mi NW 24.2 mph 33.4 mph N/A   Partly Cloudy
3:20 AM 51.8 °F 30.2 °F 44% 29.82 in 10.0 mi NW 21.9 mph 36.8 mph N/A   Partly Cloudy
3:40 AM 51.8 °F 30.2 °F 44% 29.82 in 10.0 mi NW 23.0 mph 42.6 mph N/A   Clear
4:00 AM 51.8 °F 28.4 °F 41% 29.83 in 10.0 mi NW 18.4 mph 28.8 mph N/A   Clear
4:20 AM 50.0 °F 30.2 °F 47% 29.82 in 10.0 mi WNW 20.7 mph 27.6 mph N/A   Clear
4:40 AM 50.0 °F 30.2 °F 47% 29.83 in 10.0 mi WNW 21.9 mph 27.6 mph N/A   Clear
5:00 AM 51.8 °F 28.4 °F 41% 29.83 in 10.0 mi NW 20.7 mph - N/A   Clear
5:20 AM 51.8 °F 28.4 °F 41% 29.83 in 10.0 mi NW 18.4 mph 29.9 mph N/A   Clear
5:40 AM 50.0 °F 26.6 °F 40% 29.84 in 10.0 mi NNW 10.4 mph 23.0 mph N/A   Clear
6:00 AM 48.2 °F 26.6 °F 43% 29.85 in 9.0 mi NNW 9.2 mph - N/A   Partly Cloudy
6:20 AM 48.2 °F 26.6 °F 43% 29.85 in 8.0 mi North 10.4 mph - N/A   Partly Cloudy
6:40 AM 48.2 °F 26.6 °F 43% 29.86 in 8.0 mi NNW 8.1 mph - N/A   Clear
7:00 AM 48.2 °F 28.4 °F 46% 29.86 in 10.0 mi NW 9.2 mph - N/A   Clear
7:20 AM 50.0 °F 28.4 °F 43% 29.87 in 10.0 mi NW 11.5 mph - N/A   Clear
7:40 AM 51.8 °F 28.4 °F 41% 29.87 in 9.0 mi NW 8.1 mph - N/A   Clear
8:00 AM 53.6 °F 28.4 °F 38% 29.88 in 10.0 mi NNW 10.4 mph - N/A   Clear
8:20 AM 55.4 °F 28.4 °F 36% 29.89 in 10.0 mi WNW 10.4 mph - N/A   Clear
8:40 AM 55.4 °F 26.6 °F 33% 29.90 in 10.0 mi Calm Calm - N/A   Clear
9:00 AM 57.2 °F 28.4 °F 33% 29.90 in 10.0 mi WNW 11.5 mph - N/A   Clear
9:20 AM 59.0 °F 28.4 °F 31% 29.90 in 10.0 mi WNW 9.2 mph - N/A   Clear
9:40 AM 60.8 °F 26.6 °F 27% 29.91 in 10.0 mi NW 8.1 mph - N/A   Clear
10:00 AM 62.6 °F 26.6 °F 26% 29.91 in 10.0 mi WNW 8.1 mph - N/A   Clear
10:20 AM 60.8 °F 26.6 °F 27% 29.91 in 10.0 mi Variable 6.9 mph - N/A   Clear
10:40 AM 62.6 °F 26.6 °F 26% 29.91 in 10.0 mi Calm Calm - N/A   Clear
11:00 AM 64.4 °F 26.6 °F 24% 29.91 in 10.0 mi Variable 4.6 mph 11.5 mph N/A   Clear
11:20 AM 64.4 °F 26.6 °F 24% 29.91 in 10.0 mi West 10.4 mph - N/A   Clear
11:40 AM 64.4 °F 26.6 °F 24% 29.91 in 10.0 mi Calm Calm 11.5 mph N/A   Clear
12:00 PM 64.4 °F 28.4 °F 26% 29.91 in 10.0 mi WNW 10.4 mph - N/A   Clear
12:20 PM 66.2 °F 28.4 °F 24% 29.90 in 10.0 mi WSW 17.3 mph - N/A   Clear
12:40 PM 66.2 °F 28.4 °F 24% 29.90 in 10.0 mi West 16.1 mph - N/A   Clear
1:00 PM 68.0 °F 26.6 °F 21% 29.89 in 10.0 mi West 15.0 mph 20.7 mph N/A   Clear
1:20 PM 68.0 °F 26.6 °F 21% 29.89 in 10.0 mi West 19.6 mph - N/A   Clear
1:40 PM 68.0 °F 28.4 °F 23% 29.89 in 10.0 mi West 17.3 mph 23.0 mph N/A   Clear
2:00 PM 68.0 °F 26.6 °F 21% 29.88 in 10.0 mi West 18.4 mph - N/A   Clear
2:20 PM 68.0 °F 24.8 °F 20% 29.88 in 10.0 mi WNW 13.8 mph 23.0 mph N/A   Clear
2:40 PM 69.8 °F 23.0 °F 17% 29.88 in 10.0 mi West 16.1 mph 21.9 mph N/A   Clear
3:00 PM 69.8 °F 24.8 °F 18% 29.88 in 10.0 mi WNW 16.1 mph 24.2 mph N/A   Clear
3:20 PM 69.8 °F 24.8 °F 18% 29.88 in 10.0 mi WNW 16.1 mph - N/A   Clear
3:40 PM 68.0 °F 26.6 °F 21% 29.87 in 10.0 mi WNW 19.6 mph 25.3 mph N/A   Clear
4:00 PM 68.0 °F 28.4 °F 23% 29.87 in 10.0 mi WNW 19.6 mph - N/A   Clear
4:20 PM 68.0 °F 28.4 °F 23% 29.87 in 10.0 mi WNW 23.0 mph - N/A   Clear
4:40 PM 66.2 °F 26.6 °F 23% 29.87 in 10.0 mi WNW 20.7 mph 26.5 mph N/A   Clear
5:20 PM 64.4 °F 28.4 °F 26% 29.88 in 10.0 mi WNW 19.6 mph 26.5 mph N/A   Clear
5:40 PM 62.6 °F 28.4 °F 27% 29.89 in 10.0 mi West 17.3 mph - N/A   Clear
6:00 PM 60.8 °F 30.2 °F 31% 29.89 in 10.0 mi West 18.4 mph 28.8 mph N/A   Clear
6:20 PM 59.0 °F 28.4 °F 31% 29.88 in 10.0 mi West 21.9 mph 29.9 mph N/A   Clear
6:40 PM 57.2 °F 28.4 °F 33% 29.89 in 10.0 mi West 21.9 mph 29.9 mph N/A   Clear
7:00 PM 57.2 °F 24.8 °F 29% 29.89 in 10.0 mi WNW 16.1 mph 25.3 mph N/A   Clear
7:20 PM 57.2 °F 26.6 °F 31% 29.89 in 10.0 mi WNW 21.9 mph - N/A   Clear
7:40 PM 57.2 °F 26.6 °F 31% 29.89 in 10.0 mi WNW 17.3 mph 24.2 mph N/A   Clear
8:00 PM 57.2 °F 28.4 °F 33% 29.90 in 10.0 mi NW 13.8 mph - N/A   Clear
8:20 PM 53.6 °F 26.6 °F 35% 29.91 in 10.0 mi WNW 6.9 mph - N/A   Clear
8:40 PM 55.4 °F 26.6 °F 33% 29.92 in 10.0 mi West 8.1 mph - N/A   Clear
9:00 PM 53.6 °F 26.6 °F 35% 29.92 in 10.0 mi West 6.9 mph - N/A   Clear
9:20 PM 53.6 °F 24.8 °F 33% 29.93 in 10.0 mi Variable 3.5 mph - N/A   Clear
9:40 PM 53.6 °F 26.6 °F 35% 29.94 in 10.0 mi NW 5.8 mph - N/A   Clear
10:00 PM 51.8 °F 24.8 °F 35% 29.94 in 10.0 mi Calm Calm - N/A   Clear
10:20 PM 51.8 °F 24.8 °F 35% 29.95 in 10.0 mi West 3.5 mph - N/A   Clear
10:40 PM 51.8 °F 24.8 °F 35% 29.95 in 10.0 mi WNW 9.2 mph - N/A   Clear
11:00 PM 53.6 °F 24.8 °F 33% 29.95 in 10.0 mi WNW 11.5 mph - N/A   Clear
11:20 PM 53.6 °F 24.8 °F 33% 29.95 in 10.0 mi WNW 12.7 mph - N/A   Clear
11:40 PM 53.6 °F 26.6 °F 35% 29.96 in 10.0 mi WNW 9.2 mph - N/A   Clear